This is the latest recevied weather packets stored in our database for station/object 4S6DRJ-13. If no packets are shown the sender has not sent any weather packets the latest 10 day(s).
| Time | Temp. | Humidity | Pressure | Rain* | Wind** | Luminosity | Snow |
|---|---|---|---|---|---|---|---|
| 1788038544 | 27.78° C | 86% | 1009.4 hPa | 0 mm | 1.79 m/s, 283° | 0 W/m² | - |
| 1788038497 | 27.78° C | 86% | 1009.6 hPa | 0 mm | 0.89 m/s, 237° | 0 W/m² | - |
| 1788038422 | 27.78° C | 86% | 1009.4 hPa | 0 mm | 0.45 m/s, 229° | 0 W/m² | - |
| 1788038300 | 27.78° C | 85% | 1009.5 hPa | 0 mm | 1.34 m/s, 169° | 0 W/m² | - |
| 1788038239 | 27.78° C | 85% | 1009.3 hPa | 0 mm | 1.34 m/s, 131° | 0 W/m² | - |
| 1788038178 | 27.78° C | 85% | 1009.3 hPa | 0 mm | 0.89 m/s, 224° | 0 W/m² | - |
| 1788038117 | 27.78° C | 85% | 1009.4 hPa | 0 mm | 0.89 m/s, 226° | 0 W/m² | - |
| 1788038056 | 27.78° C | 85% | 1009.4 hPa | 0 mm | 1.34 m/s, 236° | 0 W/m² | - |
| 1788037995 | 27.78° C | 85% | 1009.3 hPa | 0 mm | 0.45 m/s, 252° | 0 W/m² | - |
| 1788037934 | 27.78° C | 85% | 1009.2 hPa | 0 mm | 0.89 m/s, 251° | 0 W/m² | - |
| 1788037873 | 27.78° C | 85% | 1009.3 hPa | 0 mm | 1.34 m/s, 190° | 0 W/m² | - |
| 1788037752 | 27.78° C | 85% | 1009.4 hPa | 0 mm | 0.89 m/s, 236° | 0 W/m² | - |
| 1788037690 | 27.78° C | 84% | 1009.3 hPa | 0 mm | 1.34 m/s, 155° | 0 W/m² | - |
| 1788037629 | 27.78° C | 84% | 1009.1 hPa | 0 mm | 0.89 m/s, 235° | 0 W/m² | - |
| 1788037568 | 27.78° C | 84% | 1009.2 hPa | 0 mm | 2.24 m/s, 204° | 0 W/m² | - |
| 1788037507 | 27.78° C | 84% | 1009.4 hPa | 0 mm | 0.89 m/s, 205° | 0 W/m² | - |
| 1788037446 | 27.78° C | 84% | 1009.1 hPa | 0 mm | 1.34 m/s, 254° | 0 W/m² | - |
| 1788037385 | 27.78° C | 84% | 1009.3 hPa | 0 mm | 0.45 m/s, 194° | 0 W/m² | - |
| 1788037324 | 27.78° C | 84% | 1009.2 hPa | 0 mm | 1.79 m/s, 235° | 0 W/m² | - |
| 1788037263 | 27.78° C | 84% | 1009.4 hPa | 0 mm | 1.34 m/s, 233° | 0 W/m² | - |
| 1788037202 | 27.78° C | 84% | 1009.3 hPa | 0 mm | 1.34 m/s, 258° | 0 W/m² | - |
| 1788037141 | 27.78° C | 83% | 1009.2 hPa | 0 mm | 1.34 m/s, 199° | 0 W/m² | - |
| 1788037080 | 27.78° C | 83% | 1009.4 hPa | 0 mm | 0.89 m/s, 238° | 0 W/m² | - |
| 1788037019 | 27.78° C | 83% | 1009.3 hPa | 0 mm | 0.45 m/s, 219° | 0 W/m² | - |
| 1788036958 | 27.78° C | 83% | 1009.4 hPa | 0 mm | 0.89 m/s, 203° | 0 W/m² | - |
* Rain latest hour (hover to see other rain measurements)
** Current wind speed in m/s (hover to see current wind gust speed)